Volver al catálogo

TIANMU-1 06

ActivoCienciaSSO
NORAD 55976·PAYLOAD·🇨🇳 China

Lanzado Mar 22, 2023 desde Jiuquan Satellite Launch Center

Loading…

Próximos Pases (próximas 24 horas)

TLE

ActualizadoSource: Space-Track

Época: Sep 14, 2026, 13:54 UTC

1 55976U 23039D   26257.57932047  .00013508  00000-0  24132-3 0  9990
2 55976  97.5252  75.5485 0003538 125.6809 234.4772 15.50156432194687

Sigue TIANMU-1 06 en tiempo real con AllMySat

Download on the App Store